Карточка аэропорта UHMM

Внимание!
Информация на этой странице в стадии наполнения.
Если вы не увидели какой-то информации, или заметили неточность - пожалуйста сообщите нам!
Спасибо!
Команда RU-STAFF
Название аэропортаСокол
Название аэропорта (англ.)Sokol
Превышение574 ft. (175 m.)
Координаты59°54.648', 150°43.2'
Высота перехода2500m
Эшелон переходаQFE>=744mm: FL100; 744mm>QFE>=717mm: FL110; QFE<717mm: FL120
Коды ответчика6540-6577
Зона ОрВДМагадан РПИ (UHMM)
Данные METARUHMM 070730Z 00000MPS 9999 FEW040 M33/M37 Q0996 R10/89//35 NOSIG RMK QFE732 R28/09002MPS
Проноз погоды (TAF)UHMM 070450Z 0706/0812 09003G08MPS 5000 -SHSN SCT011 BKN020CB TEMPO 0706/0806 2100 -SHSN VV005
NOTAMshow/hide NOTAM
AWOS   TABLE

Информация о ВПП


Диспетчерские позиции

Позывной Наименование органа УВД Частота
UHMM_APPМагадан-Подход119.3
UHMM_TWRМагадан-Вышка120.8



Спутниковое изображение